Location: Brachbach
(49.1847°N, 9.7240°E)
Time: 04:18:29
(UTC+00:00)

STARS - Pass Details

Date: 16 March 2026
Orbit: 575 x 588 km, 98.2° (Epoch: 15 April)

Event Time Altitude Azimuth Distance (km) Brightness Sun altitude
Rises 02:20:24 0° 5° (N) 2,802 ? -30.3°
Reaches altitude 10° 02:22:44 10° 355° (N) 1,897 ? -30.0°
Enters shadow 02:23:28 14° 350° (N) 1,637 ? -29.9°
